Mackinac Island, MI

7:08 AM EST on November 18, 2017 (GMT -0500)
Mackinac Island

Weather History for KMCD - March, 2013

Change the Weather History Date:

Monday, March 25, 2013

  Actual Average Record
Temperature  
Mean Temperature 34 °F -  
Max Temperature 40 °F 36 °F 57 °F (1986)
Min Temperature 28 °F 23 °F -1 °F (1974)
Degree Days  
Heating Degree Days 31    
Moisture  
Dew Point 22 °F    
Average Humidity 65    
Maximum Humidity 74    
Minimum Humidity 48    
Precipitation  
Precipitation 0.00 in - - ()
Sea Level Pressure  
Sea Level Pressure 29.88 in    
Wind  
Wind Speed 12 mph (NNE)    
Max Wind Speed 16 mph    
Max Gust Speed 22 mph    
Visibility 10 miles    
Events      
Averages and records for this station are not official NWS values.
T = Trace of Precipitation, MM = Missing Value Source: NWS Daily Summary

Daily Weather History Graph

Daily Weather History Graph

Search for Another Location

Airport or City:

Trip Planner

Search our weather history database for the weather conditions in past years. The results will help you decide how hot, cold, wet, or windy it might be!

Date:

Astronomy

Mar. 25, 2013 Rise Set
Actual Time 7:31 AM EDT 7:58 PM EDT
Civil Twilight 7:01 AM EDT 8:28 PM EDT
Nautical Twilight 6:26 AM EDT 9:03 PM EDT
Astronomical Twilight 5:49 AM EDT 9:40 PM EDT
Moon 6:26 PM EDT (3/25) 6:18 AM EDT (3/25)
Length of Visible Light 13h 26m
Length of Day
12h 26m
Waxing Gibbous, 96% of the Moon is Illuminated
Mar 25
Waxing Gibbous
Mar 27
Full
Apr 3
Last Quarter
Apr 10
New
Apr 18
First Quarter

Hourly Weather History & Observations

Time (EDT) Temp. Windchill Dew Point Humidity Pressure Visibility Wind Dir Wind Speed Gust Speed Precip Events Conditions
12:16 AM 31.1 °F 20.5 °F 20.5 °F 65% 29.86 in 10.0 mi NE 15.0 mph 20.7 mph N/A   Overcast
12:35 AM 31.1 °F 20.9 °F 20.8 °F 66% 29.86 in 10.0 mi NE 13.8 mph 20.7 mph N/A   Overcast
12:56 AM 31.1 °F 20.9 °F 21.0 °F 66% 29.86 in 10.0 mi NE 13.8 mph 19.6 mph N/A   Overcast
1:15 AM 31.1 °F 21.4 °F 21.0 °F 66% 29.86 in 10.0 mi NE 12.7 mph - N/A   Overcast
1:35 AM 30.9 °F 22.2 °F 21.2 °F 67% 29.86 in 10.0 mi NE 10.4 mph - N/A   Overcast
1:56 AM 30.9 °F 22.2 °F 21.2 °F 67% 29.87 in 10.0 mi NE 10.4 mph - N/A   Overcast
2:15 AM 30.9 °F 21.2 °F 21.2 °F 67% 29.86 in 10.0 mi NE 12.7 mph 19.6 mph N/A   Overcast
2:35 AM 31.1 °F 20.1 °F 21.6 °F 68% 29.86 in 10.0 mi ENE 16.1 mph 21.9 mph N/A   Overcast
2:56 AM 31.1 °F 20.9 °F 21.6 °F 68% 29.86 in 10.0 mi NE 13.8 mph 20.7 mph N/A   Overcast
3:15 AM 30.9 °F 20.7 °F 21.2 °F 67% 29.86 in 10.0 mi ENE 13.8 mph 20.7 mph N/A   Overcast
3:35 AM 30.9 °F 21.7 °F 21.2 °F 67% 29.86 in 10.0 mi NE 11.5 mph - N/A   Overcast
3:56 AM 30.6 °F 22.4 °F 21.6 °F 69% 29.85 in 10.0 mi NE 9.2 mph - N/A   Overcast
4:15 AM 30.7 °F 22.6 °F 21.2 °F 68% 29.85 in 10.0 mi NNE 9.2 mph 16.1 mph N/A   Overcast
4:35 AM 30.6 °F 21.8 °F 21.0 °F 68% 29.85 in 10.0 mi NNE 10.4 mph - N/A   Overcast
4:56 AM 29.8 °F 20.9 °F 21.2 °F 70% 29.85 in 10.0 mi NNE 10.4 mph - N/A   Overcast
5:15 AM 29.7 °F 20.1 °F 20.8 °F 70% 29.85 in 10.0 mi NNE 11.5 mph 16.1 mph N/A   Overcast
5:36 AM 28.9 °F 19.8 °F 20.7 °F 71% 29.84 in 10.0 mi NNE 10.4 mph - N/A   Mostly Cloudy
5:56 AM 28.9 °F 19.2 °F 20.8 °F 72% 29.84 in 10.0 mi NNE 11.5 mph - N/A   Scattered Clouds
6:15 AM 29.3 °F 19.6 °F 21.0 °F 71% 29.84 in 10.0 mi NNE 11.5 mph 17.3 mph N/A   Overcast
6:36 AM 29.3 °F 19.6 °F 21.2 °F 72% 29.84 in 10.0 mi NNE 11.5 mph 18.4 mph N/A   Overcast
6:55 AM 29.3 °F 19.6 °F 21.2 °F 72% 29.84 in 10.0 mi NNE 11.5 mph - N/A   Overcast
7:15 AM 29.1 °F 19.4 °F 21.6 °F 73% 29.84 in 10.0 mi NNE 11.5 mph 17.3 mph N/A   Overcast
7:36 AM 28.8 °F 18.4 °F 21.4 °F 74% 29.84 in 10.0 mi NNE 12.7 mph 20.7 mph N/A   Overcast
7:55 AM 28.4 °F 19.1 °F 21.2 °F 74% 29.84 in 10.0 mi NNE 10.4 mph 20.7 mph N/A   Overcast
8:16 AM 28.8 °F 19.5 °F 21.6 °F 74% 29.85 in 10.0 mi NNE 10.4 mph 16.1 mph N/A   Overcast
8:36 AM 28.9 °F 19.8 °F 21.7 °F 74% 29.85 in 10.0 mi NNE 10.4 mph - N/A   Overcast
8:55 AM 29.3 °F 20.2 °F 21.9 °F 74% 29.85 in 10.0 mi North 10.4 mph 16.1 mph N/A   Overcast
9:16 AM 29.8 °F 19.8 °F 21.9 °F 72% 29.85 in 10.0 mi NNE 12.7 mph 17.3 mph N/A   Overcast
9:36 AM 31.3 °F 21.6 °F 21.9 °F 68% 29.85 in 10.0 mi NNE 12.7 mph 20.7 mph N/A   Scattered Clouds
9:55 AM 31.1 °F 23.1 °F 21.7 °F 68% 29.85 in 10.0 mi NNE 9.2 mph 18.4 mph N/A   Scattered Clouds
10:16 AM 32.0 °F 22.5 °F 21.9 °F 66% 29.85 in 10.0 mi NNE 12.7 mph 19.6 mph N/A   Overcast
10:36 AM 32.0 °F 23.0 °F 21.7 °F 66% 29.86 in 10.0 mi North 11.5 mph 18.4 mph N/A   Overcast
10:55 AM 32.0 °F 22.1 °F 21.9 °F 66% 29.86 in 10.0 mi NNE 13.8 mph 20.7 mph N/A   Overcast
11:16 AM 33.1 °F 23.4 °F 21.9 °F 64% 29.86 in 10.0 mi North 13.8 mph 17.3 mph N/A   Overcast
11:36 AM 33.4 °F 25.4 °F 21.7 °F 62% 29.86 in 10.0 mi North 10.4 mph 16.1 mph N/A   Overcast
11:55 AM 34.0 °F 24.6 °F 21.9 °F 61% 29.86 in 10.0 mi North 13.8 mph 18.4 mph N/A   Overcast
12:16 PM 34.3 °F 27.0 °F 22.1 °F 61% 29.87 in 10.0 mi North 9.2 mph - N/A   Overcast
12:35 PM 34.7 °F 26.4 °F 22.1 °F 60% 29.87 in 10.0 mi North 11.5 mph 17.3 mph N/A   Overcast
12:55 PM 35.6 °F 29.2 °F 22.3 °F 58% 29.87 in 10.0 mi North 8.1 mph 18.4 mph N/A   Overcast
1:16 PM 37.2 °F 29.6 °F 22.3 °F 55% 29.86 in 10.0 mi North 11.5 mph - N/A   Overcast
1:36 PM 38.7 °F 31.8 °F 21.4 °F 50% 29.86 in 10.0 mi North 10.4 mph 16.1 mph N/A   Overcast
1:55 PM 39.2 °F 33.0 °F 21.6 °F 49% 29.86 in 10.0 mi NE 9.2 mph - N/A   Overcast
2:16 PM 40.1 °F 34.1 °F 22.1 °F 49% 29.86 in 10.0 mi NE 9.2 mph - N/A   Overcast
2:36 PM 39.0 °F 33.4 °F 21.4 °F 49% 29.86 in 10.0 mi ENE 8.1 mph - N/A   Overcast
2:55 PM 39.6 °F 34.7 °F 21.2 °F 48% 29.86 in 10.0 mi North 6.9 mph - N/A   Overcast
3:16 PM 38.7 °F 33.6 °F 21.0 °F 49% 29.86 in 10.0 mi North 6.9 mph - N/A   Overcast
3:35 PM 39.0 °F 32.8 °F 21.2 °F 49% 29.85 in 10.0 mi North 9.2 mph 16.1 mph N/A   Overcast
3:55 PM 37.4 °F 29.3 °F 22.5 °F 55% 29.86 in 10.0 mi North 12.7 mph 19.6 mph N/A   Overcast
4:16 PM 37.4 °F 30.3 °F 22.5 °F 55% 29.86 in 10.0 mi North 10.4 mph 19.6 mph N/A   Overcast
4:35 PM 38.7 °F 32.4 °F 22.5 °F 52% 29.86 in 10.0 mi North 9.2 mph - N/A   Overcast
4:55 PM 37.9 °F 31.5 °F 22.8 °F 55% 29.87 in 10.0 mi North 9.2 mph 18.4 mph N/A   Overcast
5:15 PM 36.9 °F 30.7 °F 23.5 °F 59% 29.87 in 10.0 mi North 8.1 mph 17.3 mph N/A   Overcast
5:35 PM 37.4 °F 30.3 °F 23.2 °F 57% 29.88 in 10.0 mi North 10.4 mph 16.1 mph N/A   Overcast
5:56 PM 36.9 °F 28.7 °F 23.9 °F 59% 29.88 in 10.0 mi North 12.7 mph 18.4 mph N/A   Overcast
6:15 PM 36.7 °F 28.4 °F 23.7 °F 59% 29.88 in 10.0 mi North 12.7 mph 19.6 mph N/A   Overcast
6:35 PM 36.5 °F 29.2 °F 23.7 °F 60% 29.89 in 10.0 mi North 10.4 mph 17.3 mph N/A   Overcast
6:56 PM 35.8 °F 28.3 °F 23.9 °F 62% 29.90 in 10.0 mi North 10.4 mph 17.3 mph N/A   Overcast
7:15 PM 35.6 °F 28.0 °F 23.9 °F 62% 29.91 in 10.0 mi North 10.4 mph 17.3 mph N/A   Overcast
7:36 PM 35.6 °F 28.6 °F 23.9 °F 62% 29.91 in 10.0 mi North 9.2 mph 16.1 mph N/A   Overcast
7:55 PM 35.4 °F 28.4 °F 24.1 °F 63% 29.92 in 10.0 mi North 9.2 mph 16.1 mph N/A   Overcast
8:15 PM 35.1 °F 28.6 °F 24.1 °F 64% 29.92 in 10.0 mi NNW 8.1 mph - N/A   Overcast
8:36 PM 34.7 °F 26.9 °F 24.8 °F 67% 29.93 in 10.0 mi NNW 10.4 mph - N/A   Overcast
8:56 PM 34.7 °F 27.5 °F 24.8 °F 67% 29.93 in 10.0 mi NNW 9.2 mph - N/A   Overcast
9:15 PM 34.3 °F 27.0 °F 24.8 °F 68% 29.94 in 10.0 mi NNW 9.2 mph - N/A   Overcast
9:36 PM 34.3 °F 27.0 °F 25.2 °F 69% 29.95 in 10.0 mi NNW 9.2 mph - N/A   Overcast
9:55 PM 34.0 °F 27.2 °F 25.3 °F 71% 29.95 in 10.0 mi NNW 8.1 mph - N/A   Overcast
10:15 PM 33.8 °F 27.0 °F 25.5 °F 72% 29.95 in 10.0 mi NNW 8.1 mph - N/A   Overcast
10:36 PM 33.8 °F 26.4 °F 25.3 °F 71% 29.96 in 10.0 mi NNW 9.2 mph - N/A   Overcast
10:55 PM 33.8 °F 28.6 °F 25.3 °F 71% 29.96 in 10.0 mi North 5.8 mph - N/A   Overcast
11:15 PM 33.8 °F 27.7 °F 25.3 °F 71% 29.96 in 10.0 mi NNW 6.9 mph - N/A   Overcast
11:36 PM 33.8 °F 29.6 °F 25.2 °F 71% 29.97 in 10.0 mi NNW 4.6 mph - N/A   Overcast
11:56 PM 33.3 °F 27.9 °F 25.9 °F 74% 29.97 in 10.0 mi NNW 5.8 mph - N/A   Overcast